This demonstration page uses our WeatherBlox Daily Observations layout. Learn more.

Left ArrowRight Arrow

39.92423, -83.80882

Hourly Observations for June 24, 2015

Temp ( °F °C ) Dew Point ( °F °C ) Humidity (%) Winds ( mph kmh ) Pressure ( in mb ) Visibility ( mi km ) Precip ( " mm )
12:56 am 00:56 Clear 65 18.3 60 15.5 84 84 NW 5 7 30.08 1019 9 14.48406 0 0
1:56 am 01:56 Clear 63 17.2 60 15.5 90 90 W 3 6 30.1 1019 10 16.0934 0 0
2:56 am 02:56 Clear 62 16.6 59 15 90 90 WNW 3 6 30.11 1020 9 14.48406 0 0
3:56 am 03:56 Clear 61 16.1 58 14.4 90 90 Calm 30.11 1020 10 16.0934 0 0
5:56 am 05:56 Clear 59 15 59 15 100 100 NW 5 7 30.14 1021 9 14.48406 0 0
6:56 am 06:56 Sunny 60 15.5 59 15 97 97 WNW 3 6 30.14 1021 8 12.87472 0 0
7:56 am 07:56 Sunny 64 17.7 60 15.5 87 87 NNW 5 7 30.14 1021 8 12.87472 0 0
8:56 am 08:56 Sunny 69 20.5 60 15.5 73 73 VRB 3 6 30.16 1021 8 12.87472 0 0
9:56 am 09:56 Sunny 71 21.6 62 16.6 73 73 Calm 30.16 1022 9 14.48406 0 0
10:56 am 10:56 Sunny 75 23.8 61 16.1 62 62 VRB 5 7 30.16 1021 8 12.87472 0 0
11:56 am 11:56 Sunny 77 25 59 15 54 54 VRB 5 7 30.16 1022 8 12.87472 0 0
12:56 pm 12:56 Sunny 78 25.5 58 14.4 50 50 VRB 3 6 30.16 1021 8 12.87472 0 0
1:56 pm 13:56 Sunny 80 26.6 59 15 49 49 W 7 11 30.16 1021 9 14.48406 0 0
2:56 pm 14:56 Sunny 79 26.1 58 14.4 49 49 WNW 7 11 30.18 1022 8 12.87472 0 0
3:56 pm 15:56 Sunny 80 26.6 58 14.4 47 47 NW 9 15 30.17 1022 9 14.48406 0 0
4:56 pm 16:56 Sunny 79 26.1 59 15 50 50 NNW 7 11 30.15 1021 8 12.87472 0 0
5:56 pm 17:56 Sunny 78 25.5 60 15.5 54 54 NNW 9 15 30.13 1020 8 12.87472 0 0
6:56 pm 18:56 Sunny 77 25 60 15.5 56 56 NNW 7 11 30.1 1019 9 14.48406 0 0
7:56 pm 19:56 Sunny 76 24.4 62 16.6 62 62 NW 5 7 30.12 1020 9 14.48406 0 0
8:56 pm 20:56 Sunny 73 22.7 62 16.6 69 69 N 5 7 30.11 1020 9 14.48406 0 0
9:56 pm 21:56 Clear 70 21.1 62 16.6 76 76 NW 5 7 30.12 1020 9 14.48406 0 0
10:56 pm 22:56 Mostly Clear 69 20.5 61 16.1 76 76 Calm 30.12 1020 9 14.48406 0 0
11:56 pm 23:56 Mostly Clear 66 18.8 62 16.6 87 87 Calm 30.12 1020 9 14.48406 0 0

Powered by AerisWeather